Location: New Plymouth
(39.0670°S, 174.0830°E)
Time: 09:53:45
(UTC+12:00)

ISS - Pass Details

Date: 19 May 2021
Orbit: 417 x 422 km, 51.6° (Epoch: 17 June)

Event Time Altitude Azimuth Distance (km) Brightness Sun altitude
Rises 06:24:10 0° 352° (N) 2,369 0.2 -11.5°
Reaches altitude 10° 06:27:00 10° 18° (NNE) 1,513 -0.4 -11.0°
Maximum altitude 06:28:52 14° 51° (NE) 1,293 -0.1 -10.7°
Drops below altitude 10° 06:30:45 10° 85° (E) 1,524 0.6 -10.3°
Sets 06:33:36 0° 110° (ESE) 2,397 1.0 -9.8°
